Location: *
(44.3925°N, 5.4708°E)
Time: 18:40:11
(UTC+00:00)

Terra - Pass Details

Date: 18 September 2019
Orbit: 701 x 703 km, 98.2° (Epoch: 20 October)

Event Time Altitude Azimuth Distance (km) Brightness Sun altitude
Exits shadow 21:46:08 18° 343° (NNW) 1,698 4.3 -38.2°
Drops below altitude 10° 21:47:21 10° 344° (NNW) 2,180 5.0 -38.3°
Sets 21:49:37 0° 346° (NNW) 3,103 6.0 -38.5°
